Weather History for NW Arkansas Airport, AR

Change the Weather History Date:

Wednesday, October 8, 2014

  Actual Average Record
Temperature  
Mean Temperature 72 °F -  
Max Temperature 82 °F - - ()
Min Temperature 62 °F - - ()
Cooling Degree Days 6    
Growing Degree Days 22 (Base 50)    
Moisture  
Dew Point 65 °F    
Average Humidity 85    
Maximum Humidity 100    
Minimum Humidity 58    
Precipitation  
Precipitation 0.27 in - - ()
Sea Level Pressure  
Sea Level Pressure 30.02 in    
Wind  
Wind Speed 4 mph (SE)    
Max Wind Speed 15 mph    
Max Gust Speed -    
Visibility 10 miles    
Events Rain , Thunderstorm    
T = Trace of Precipitation, MM = Missing Value Source: NWS Daily Summary

Daily Weather History Graph

Daily Weather History Graph

Search for Another Location

Airport:

Trip Planner

Search our weather history database for the weather conditions in past years. The results will help you decide how hot, cold, wet, or windy it might be!

Date:

Astronomy

Oct. 08, 2014 Rise Set
Actual Time 7:18 AM CDT 6:50 PM CDT
Civil Twilight 6:52 AM CDT 7:16 PM CDT
Nautical Twilight 6:22 AM CDT 7:46 PM CDT
Astronomical Twilight 5:52 AM CDT 8:15 PM CDT
Moon 7:07 PM CDT (10/8) 7:25 AM CDT (10/8)
Length of Visible Light 12h 23m
Length of Day
11h 32m
Full, 100% of the Moon is Illuminated
Oct 8
Full
Oct 15
Last Quarter
Oct 23
New
Oct 30
First Quarter
Nov 6
Full

Hourly Weather History & Observations

Time (CDT) Temp. Heat Index Dew Point Humidity Pressure Visibility Wind Dir Wind Speed Gust Speed Precip Events Conditions
12:53 AM 64.9 °F - 61.0 °F 87% 29.98 in 10.0 mi Calm Calm - N/A   Clear
1:53 AM 64.0 °F - 61.0 °F 90% 29.98 in 10.0 mi Calm Calm - N/A   Clear
2:53 AM 63.0 °F - 61.0 °F 93% 29.99 in 10.0 mi Calm Calm - N/A   Clear
3:53 AM 62.1 °F - 60.1 °F 93% 29.99 in 10.0 mi NNE 5.8 mph - N/A   Clear
4:53 AM 63.0 °F - 61.0 °F 93% 30.00 in 10.0 mi Calm Calm - N/A   Scattered Clouds
5:53 AM 64.0 °F - 62.1 °F 93% 30.00 in 10.0 mi Calm Calm - 0.00 in   Mostly Cloudy
6:28 AM 66.9 °F - 62.1 °F 84% 30.05 in 10.0 mi Calm Calm - N/A Thunderstorm Overcast
6:53 AM 66.0 °F - 64.0 °F 93% 30.02 in 10.0 mi SSE 5.8 mph - N/A Thunderstorm Overcast
7:16 AM 64.9 °F - 62.1 °F 90% 30.06 in 10.0 mi Variable 3.5 mph - N/A   Mostly Cloudy
7:24 AM 66.0 °F - 62.1 °F 87% 30.07 in 10.0 mi Variable 3.5 mph - N/A Thunderstorm Mostly Cloudy
7:37 AM 66.0 °F - 61.0 °F 84% 30.07 in 10.0 mi East 5.8 mph - N/A Thunderstorm Scattered Clouds
7:46 AM 66.0 °F - 62.1 °F 87% 30.07 in 10.0 mi East 5.8 mph - N/A Thunderstorm Thunderstorm
7:53 AM 66.0 °F - 62.1 °F 87% 30.04 in 10.0 mi ESE 4.6 mph - N/A Thunderstorm Thunderstorm
8:05 AM 66.0 °F - 63.0 °F 90% 30.07 in 1.8 mi East 4.6 mph - 0.15 in Rain , Thunderstorm Heavy Thunderstorms and Rain
8:17 AM 64.9 °F - 64.9 °F 100% 30.07 in 2.5 mi NE 4.6 mph - 0.27 in Rain Light Rain
8:20 AM 64.9 °F - 64.9 °F 100% 30.07 in 8.0 mi East 4.6 mph - 0.27 in Rain , Thunderstorm Light Thunderstorms and Rain
8:41 AM 66.0 °F - 66.0 °F 100% 30.08 in 10.0 mi ESE 3.5 mph - 0.27 in   Mostly Cloudy
8:53 AM 66.9 °F - 66.9 °F 100% 30.05 in 10.0 mi East 5.8 mph - 0.27 in   Mostly Cloudy
9:53 AM 70.0 °F - 66.9 °F 90% 30.06 in 10.0 mi East 6.9 mph - N/A   Mostly Cloudy
10:53 AM 73.0 °F - 68.0 °F 84% 30.06 in 10.0 mi SE 8.1 mph - N/A   Mostly Cloudy
11:53 AM 78.1 °F - 66.9 °F 68% 30.05 in 10.0 mi SSE 9.2 mph - N/A   Clear
12:53 PM 80.1 °F 81.7 °F 64.0 °F 58% 30.03 in 10.0 mi SSW 13.8 mph - N/A   Clear
1:53 PM 81.0 °F 82.7 °F 64.9 °F 58% 30.01 in 10.0 mi South 15.0 mph - N/A   Clear
2:53 PM 81.0 °F 83.0 °F 66.0 °F 60% 29.99 in 10.0 mi SSW 11.5 mph - N/A   Clear
3:53 PM 79.0 °F - 66.0 °F 64% 29.99 in 10.0 mi South 10.4 mph - N/A   Clear
4:53 PM 80.1 °F 82.7 °F 68.0 °F 67% 29.97 in 10.0 mi South 10.4 mph - N/A   Clear
5:53 PM 77.0 °F - 69.1 °F 76% 29.97 in 10.0 mi South 8.1 mph - N/A   Clear
6:53 PM 73.9 °F - 69.1 °F 85% 29.97 in 10.0 mi South 10.4 mph - N/A   Scattered Clouds
7:53 PM 72.0 °F - 68.0 °F 87% 29.98 in 10.0 mi SSE 9.2 mph - N/A   Partly Cloudy
8:15 PM 73.0 °F - 69.1 °F 87% 30.01 in 10.0 mi South 9.2 mph - N/A   Mostly Cloudy
8:53 PM 73.0 °F - 69.1 °F 87% 29.98 in 10.0 mi SSE 10.4 mph - N/A   Overcast
9:12 PM 71.1 °F - 68.0 °F 90% 30.02 in 10.0 mi SSE 8.1 mph - N/A   Scattered Clouds
9:53 PM 71.1 °F - 68.0 °F 90% 30.00 in 10.0 mi South 4.6 mph - N/A   Mostly Cloudy
10:53 PM 69.1 °F - 66.9 °F 93% 30.00 in 10.0 mi SSE 6.9 mph - N/A   Partly Cloudy
11:53 PM 66.9 °F - 64.9 °F 93% 29.98 in 10.0 mi SSE 5.8 mph - N/A   Clear